Regional Weather Roundup
Issued by NWS Cleveland, OH

Home | Current Version | Previous Version | Text Only | Print | Product List | Glossary Off
Versions: 1 2 3 4 5 6 7 8 9 10 11 12 13 14 15 16 17 18 19 20 21 22 23 24 25 26 27 28 29 30 31 32 33 34 35 36 37 38 39 40 41 42 43 44 45 46 47 48 49 50

000
ASUS41 KCLE 261702
RWRCLE
OHIO REGIONAL WEATHER ROUNDUP
NATIONAL WEATHER SERVICE CLEVELAND, OH
100 PM EDT SUN APR 26 2015

NOTE: "FAIR" INDICATES FEW OR NO CLOUDS BELOW 12,000 FEET WITH NO
SIGNIFICANT WEATHER AND/OR OBSTRUCTIONS TO VISIBILITY.

OHZ001>008-015>018-024>027-034-035-043-044-261800-
   NORTHWEST OHIO

CITY           SKY/WX    TMP DP  RH WIND       PRES   REMARKS
DEFIANCE       SUNNY     55  29  36 N17       29.92S
FINDLAY        SUNNY     54  30  40 NE13G22   29.89S
TOLEDO EXPRESS MOSUNNY   54  28  36 N14       29.90F
TOLEDO EXEC    SUNNY     53  29  39 NE13G23   29.92S
LIMA           MOSUNNY   51  34  52 N13       29.89S
$$

OHZ009>014-019>023-028>033-038-089-261800-
   NORTHEAST OHIO

CITY           SKY/WX    TMP DP  RH WIND       PRES   REMARKS
CLE-HOPKINS    SUNNY     48  35  60 N13       29.90S
CLE-LAKEFRONT  SUNNY     44  36  73 N12       29.88S
CUY CO. ARPT   NOT AVBL
LORAIN-ELYRIA  SUNNY     49  34  56 N13       29.88S
ASHTABULA      SUNNY     52  28  39 N10G17    29.85S
AKRON-CANTON   MOSUNNY   56  29  35 NE10G17   29.82S
WOOSTER        SUNNY     55  31  39 N14G20    29.83F
MANSFIELD      SUNNY     52  29  41 N13G22    29.84S
YOUNGSTOWN     MOSUNNY   54  27  35 NE8G21    29.81F
$$

OHZ042-051>053-060>062-070>072-077>081-261800-
  SOUTHWEST OHIO

CITY           SKY/WX    TMP DP  RH WIND       PRES   REMARKS
CINC-COVINGTON MOSUNNY   55  36  48 NW14      29.85S
CINC-LUNKEN    SUNNY     56  38  50 NE13      29.86S
HAMILTON       SUNNY     56  36  47 N7        29.87S
DAYTON         MOSUNNY   55  36  48 N20       29.88R
WRIGHT-PAT AFB MOSUNNY   54  33  43 N8G17     29.86R
DAYTON GENERAL SUNNY     55  36  48 N14G20    29.85S
WILMINGTON     SUNNY     54  36  50 N14G21    29.84S
$$

OHZ036-037-039>041-045>050-054>059-063>069-073>076-082>088-261800-
  CENTRAL AND SOUTHEAST OHIO

CITY           SKY/WX    TMP DP  RH WIND       PRES   REMARKS
COLUMBUS       MOSUNNY   56  34  43 NE12      29.82S
OSU AIRPORT    SUNNY     55  34  45 N15       29.83S
BOLTON FIELD   SUNNY     54  36  50 N13G18    29.84R
RICKENBACK AFB SUNNY     55  34  44 N12       29.82S
NEWARK         SUNNY     56  33  42 N10G18    29.81S
MARION         SUNNY     53  32  44 NE20G28   29.87R
LANCASTER      SUNNY     57  37  47 N9        29.82S
ZANESVILLE     SUNNY     56  33  42 N8G17     29.80S
NEW PHILLY     SUNNY     58  29  33 MISG      29.81S
$$


USA.gov is the U.S. government's official web portal to all federal, state and local government web resources and services.